Location: Bratislava
(48.1500°N, 17.1170°E)
Time: 17:14:32
(UTC+02:00)

Mayak - Visible Passes

Search period start: 19 July 2018 00:00
Search period end: 29 July 2018 00:00
Orbit: 582 x 605 km, 97.6° (Epoch: 19 July)

Date Brightness Start Highest point End Pass type
(mag) Time Alt. Az. Time Alt. Az. Time Alt. Az.
19 Jul -1.4 00:14:37 10° NNE 00:18:48 80° ESE 00:19:34 58° S visible
19 Jul 1.3 01:51:58 10° NNW 01:53:49 13° WNW 01:55:41 10° W visible
19 Jul 1.0 22:50:50 10° ENE 22:51:45 11° E 22:52:09 10° E visible
20 Jul -1.3 00:23:47 10° NNE 00:27:57 82° WNW 00:28:46 57° SSW visible
20 Jul 1.4 02:01:59 10° NW 02:02:51 11° WNW 02:03:43 10° WNW visible
20 Jul 0.8 22:58:59 10° ENE 23:01:02 13° E 23:01:21 13° E visible
21 Jul -1.1 00:32:57 10° N 00:37:05 66° WNW 00:37:58 50° SW visible
21 Jul 0.6 23:07:36 10° NE 23:10:17 16° E 23:10:33 16° E visible
22 Jul -0.7 00:42:10 10° N 00:46:13 53° WNW 00:47:10 42° WSW visible
22 Jul 0.3 23:16:25 10° NE 23:19:32 20° E 23:19:45 20° E visible
23 Jul -0.4 00:51:23 10° N 00:55:20 42° WNW 00:56:22 35° WSW visible
23 Jul 0.1 23:25:18 10° NE 23:28:45 25° E 23:28:57 25° E visible
24 Jul 0.0 01:00:40 10° N 01:04:27 34° WNW 01:05:34 29° W visible
24 Jul -0.2 23:34:16 10° NNE 23:37:59 30° E 23:38:09 30° E visible
25 Jul 0.3 01:09:56 10° N 01:13:32 28° WNW 01:14:46 24° W visible
25 Jul -0.5 23:43:16 10° NNE 23:47:11 37° E 23:47:20 37° ESE visible
26 Jul 0.5 01:19:16 10° NNW 01:22:37 24° WNW 01:23:57 20° W visible
26 Jul -0.9 23:52:19 10° NNE 23:56:22 47° E 23:56:31 47° ESE visible
27 Jul 0.8 01:28:39 10° NNW 01:31:40 20° WNW 01:33:08 17° W visible
28 Jul -1.2 00:01:25 10° NNE 00:05:33 59° E 00:05:43 58° ESE visible
28 Jul 1.0 01:38:06 10° NNW 01:40:45 17° WNW 01:42:19 14° W visible
